カタログに戻る

CZ-3C DEB

運用中GTO
NORAD 39340·DEBRIS·🇨🇳 China

打ち上げ Oct 31, 2010 から Xichang Satellite Launch Center

Loading…

TLE

経年Source: Space-Track

元期: Sep 14, 2026, 10:04 UTC

1 39340U 10057E   26257.41993603 -.00000208  00000-0 -63746-3 0  9990
2 39340  19.8314 299.2972 7147383 116.9154 330.4277  2.31236741107381

AllMySatでCZ-3C DEBをリアルタイム追跡

Download on the App Store